Location: Cicognara
(44.9500°N, 10.4667°E)
Time: 15:35:52
(UTC+00:00)

ATLAS CENTAUR R/B - Pass Details

Date: 20 June 2021
Orbit: 472 x 671 km, 64.6° (Epoch: 13 June)

Event Time Altitude Azimuth Distance (km) Brightness Sun altitude
Rises 21:47:04 0° 311° (NW) 2,829 6.1 -18.4°
Reaches altitude 10° 21:49:41 10° 295° (WNW) 1,961 4.8 -18.6°
Maximum altitude 21:53:02 21° 247° (WSW) 1,403 3.3 -18.8°
Enters shadow 21:54:30 18° 221° (SW) 1,542 3.3 -18.9°
